M I D A S
Marine Information and Data Acquisition System
Tripno 1442 of the Zeeleeuw from 2008-03-20 07:41:39 to 2008-03-20 15:24:56
Back to CruiseResearch ActivitiesStationsMapUnderway DataData graphs

EquipmentUnitsComments
TimeDGPSUTC
LatitudeDGPSDM.mWGS84
LongitudeDGPSDM.mWGS84
SpeedMeteo Stationm/sRelative wind speed
DirectionMeteo StationdegRelative wind direction
TemperatureMeteo Stationdeg CelciusAir temperature
PressureMeteo StationPaAtmospheric pressure
HumidityMeteo Station%Relative humidity
Missing or incorrect values are displayed as -999
Metereological data collected by the RV Zeeleeuw from 2008-03-20 07:38:23 to 2008-03-20 15:35:19
                                                                                    Next 1000 lines
Time Latitude Longitude Speed Direction Temperature Pressure Humidity
2008-03-20 07:38:33 51°13.665 2°55.951 -999 -999 -999 -999 -999
2008-03-20 07:38:38 51°13.666 2°55.949 -999 -999 -999 -999 -999
2008-03-20 07:38:43 51°13.667 2°55.947 -999 -999 -999 -999 -999
2008-03-20 07:38:48 51°13.668 2°55.943 -999 -999 -999 -999 -999
2008-03-20 07:38:53 51°13.67 2°55.939 -999 -999 -999 -999 -999
2008-03-20 07:38:58 51°13.671 2°55.934 -999 -999 -999 -999 -999
2008-03-20 07:39:03 51°13.673 2°55.929 -999 -999 -999 -999 -999
2008-03-20 07:39:08 51°13.675 2°55.924 -999 -999 -999 -999 -999
2008-03-20 07:39:13 51°13.676 2°55.918 -999 -999 -999 -999 -999
2008-03-20 07:39:18 51°13.678 2°55.911 -999 -999 -999 -999 -999
2008-03-20 07:39:23 51°13.679 2°55.904 -999 -999 -999 -999 -999
2008-03-20 07:39:28 51°13.681 2°55.897 -999 -999 -999 -999 -999
2008-03-20 07:39:33 51°13.683 2°55.89 -999 -999 -999 -999 -999
2008-03-20 07:39:38 51°13.684 2°55.882 -999 -999 -999 -999 -999
2008-03-20 07:39:43 51°13.685 2°55.875 -999 -999 -999 -999 -999
2008-03-20 07:39:48 51°13.686 2°55.868 -999 -999 -999 -999 -999
2008-03-20 07:39:53 51°13.687 2°55.861 -999 -999 -999 -999 -999
2008-03-20 07:39:58 51°13.688 2°55.854 -999 -999 -999 -999 -999
2008-03-20 07:40:03 51°13.689 2°55.847 -999 -999 -999 -999 -999
2008-03-20 07:40:08 51°13.69 2°55.841 -999 -999 -999 -999 -999
2008-03-20 07:40:13 51°13.691 2°55.835 -999 -999 -999 -999 -999
2008-03-20 07:40:18 51°13.692 2°55.828 -999 -999 -999 -999 -999
2008-03-20 07:40:23 51°13.692 2°55.821 -999 -999 -999 -999 -999
2008-03-20 07:40:28 51°13.692 2°55.815 -999 -999 -999 -999 -999
2008-03-20 07:40:33 51°13.693 2°55.809 -999 -999 -999 -999 -999
2008-03-20 07:40:38 51°13.693 2°55.803 -999 -999 -999 -999 -999
2008-03-20 07:40:43 51°13.693 2°55.797 -999 -999 -999 -999 -999
2008-03-20 07:40:48 51°13.693 2°55.791 -999 -999 -999 -999 -999
2008-03-20 07:40:53 51°13.693 2°55.786 -999 -999 -999 -999 -999
2008-03-20 07:40:58 51°13.693 2°55.781 -999 -999 -999 -999 -999
2008-03-20 07:41:03 51°13.693 2°55.776 -999 -999 -999 -999 -999
2008-03-20 07:41:08 51°13.693 2°55.771 -999 -999 -999 -999 -999
2008-03-20 07:41:13 51°13.692 2°55.767 -999 -999 -999 -999 -999
2008-03-20 07:41:18 51°13.692 2°55.763 -999 -999 -999 -999 -999
2008-03-20 07:41:23 51°13.692 2°55.76 -999 -999 -999 -999 -999
2008-03-20 07:41:28 51°13.691 2°55.757 -999 -999 -999 -999 -999
2008-03-20 07:41:33 51°13.691 2°55.754 -999 -999 -999 -999 -999
2008-03-20 07:41:38 51°13.69 2°55.751 -999 -999 -999 -999 -999
2008-03-20 07:41:43 51°13.69 2°55.749 -999 -999 -999 -999 -999
2008-03-20 07:41:48 51°13.69 2°55.748 -999 -999 -999 -999 -999
2008-03-20 07:41:53 51°13.689 2°55.746 -999 -999 -999 -999 -999
2008-03-20 07:41:58 51°13.689 2°55.745 -999 -999 -999 -999 -999
2008-03-20 07:42:03 51°13.689 2°55.745 -999 -999 -999 -999 -999
2008-03-20 07:42:08 51°13.689 2°55.744 -999 -999 -999 -999 -999
2008-03-20 07:42:13 51°13.689 2°55.744 -999 -999 -999 -999 -999
2008-03-20 07:42:18 51°13.689 2°55.744 -999 -999 -999 -999 -999
2008-03-20 07:42:23 51°13.69 2°55.744 -999 -999 -999 -999 -999
2008-03-20 07:42:28 51°13.69 2°55.744 -999 -999 -999 -999 -999
2008-03-20 07:42:33 51°13.691 2°55.744 -999 -999 -999 -999 -999
2008-03-20 07:42:38 51°13.692 2°55.745 -999 -999 -999 -999 -999
2008-03-20 07:42:43 51°13.692 2°55.745 -999 -999 -999 -999 -999
2008-03-20 07:42:48 51°13.694 2°55.746 -999 -999 -999 -999 -999
2008-03-20 07:42:53 51°13.695 2°55.746 -999 -999 -999 -999 -999
2008-03-20 07:42:58 51°13.696 2°55.747 -999 -999 -999 -999 -999
2008-03-20 07:43:03 51°13.697 2°55.748 -999 -999 -999 -999 -999
2008-03-20 07:43:08 51°13.699 2°55.748 -999 -999 -999 -999 -999
2008-03-20 07:43:13 51°13.701 2°55.748 -999 -999 -999 -999 -999
2008-03-20 07:43:18 51°13.702 2°55.748 -999 -999 -999 -999 -999
2008-03-20 07:43:23 51°13.704 2°55.748 -999 -999 -999 -999 -999
2008-03-20 07:43:28 51°13.706 2°55.748 -999 -999 -999 -999 -999
2008-03-20 07:43:33 51°13.708 2°55.747 -999 -999 -999 -999 -999
2008-03-20 07:43:38 51°13.711 2°55.747 -999 -999 -999 -999 -999
2008-03-20 07:43:43 51°13.713 2°55.746 -999 -999 -999 -999 -999
2008-03-20 07:43:48 51°13.716 2°55.745 -999 -999 -999 -999 -999
2008-03-20 07:43:53 51°13.719 2°55.743 -999 -999 -999 -999 -999
2008-03-20 07:43:58 51°13.723 2°55.741 -999 -999 -999 -999 -999
2008-03-20 07:44:03 51°13.727 2°55.737 -999 -999 -999 -999 -999
2008-03-20 07:44:08 51°13.732 2°55.733 -999 -999 -999 -999 -999
2008-03-20 07:44:13 51°13.738 2°55.728 -999 -999 -999 -999 -999
2008-03-20 07:44:18 51°13.744 2°55.722 -999 -999 -999 -999 -999
2008-03-20 07:44:23 51°13.75 2°55.715 -999 -999 -999 -999 -999
2008-03-20 07:44:28 51°13.758 2°55.707 -999 -999 -999 -999 -999
2008-03-20 07:44:33 51°13.764 2°55.699 -999 -999 -999 -999 -999
2008-03-20 07:44:38 51°13.772 2°55.69 -999 -999 -999 -999 -999
2008-03-20 07:44:43 51°13.78 2°55.681 -999 -999 -999 -999 -999
2008-03-20 07:44:48 51°13.788 2°55.672 -999 -999 -999 -999 -999
2008-03-20 07:44:53 51°13.797 2°55.663 -999 -999 -999 -999 -999
2008-03-20 07:44:58 51°13.806 2°55.654 -999 -999 -999 -999 -999
2008-03-20 07:45:03 51°13.815 2°55.645 -999 -999 -999 -999 -999
2008-03-20 07:45:08 51°13.824 2°55.636 -999 -999 -999 -999 -999
2008-03-20 07:45:13 51°13.834 2°55.628 -999 -999 -999 -999 -999
2008-03-20 07:45:18 51°13.844 2°55.619 -999 -999 -999 -999 -999
2008-03-20 07:45:23 51°13.854 2°55.611 -999 -999 -999 -999 -999
2008-03-20 07:45:28 51°13.864 2°55.604 -999 -999 -999 -999 -999
2008-03-20 07:45:32 51°13.873 2°55.598 -999 -999 -999 -999 -999
2008-03-20 07:45:38 51°13.885 2°55.588 -999 -999 -999 -999 -999
2008-03-20 07:45:43 51°13.896 2°55.58 -999 -999 -999 -999 -999
2008-03-20 07:45:48 51°13.906 2°55.572 -999 -999 -999 -999 -999
2008-03-20 07:45:53 51°13.917 2°55.564 -999 -999 -999 -999 -999
2008-03-20 07:45:58 51°13.928 2°55.557 -999 -999 -999 -999 -999
2008-03-20 07:46:03 51°13.939 2°55.549 -999 -999 -999 -999 -999
2008-03-20 07:46:08 51°13.95 2°55.541 -999 -999 -999 -999 -999
2008-03-20 07:46:13 51°13.961 2°55.533 -999 -999 -999 -999 -999
2008-03-20 07:46:18 51°13.972 2°55.526 -999 -999 -999 -999 -999
2008-03-20 07:46:23 51°13.983 2°55.519 -999 -999 -999 -999 -999
2008-03-20 07:46:28 51°13.994 2°55.511 -999 -999 -999 -999 -999
2008-03-20 07:46:33 51°14.005 2°55.503 -999 -999 -999 -999 -999
2008-03-20 07:46:38 51°14.016 2°55.496 -999 -999 -999 -999 -999
2008-03-20 07:46:43 51°14.027 2°55.488 -999 -999 -999 -999 -999
2008-03-20 07:46:48 51°14.037 2°55.48 -999 -999 -999 -999 -999
2008-03-20 07:46:53 51°14.048 2°55.471 -999 -999 -999 -999 -999
2008-03-20 07:46:58 51°14.059 2°55.463 -999 -999 -999 -999 -999
2008-03-20 07:47:03 51°14.069 2°55.454 -999 -999 -999 -999 -999
2008-03-20 07:47:08 51°14.08 2°55.446 -999 -999 -999 -999 -999
2008-03-20 07:47:13 51°14.091 2°55.438 -999 -999 -999 -999 -999
2008-03-20 07:47:18 51°14.102 2°55.43 -999 -999 -999 -999 -999
2008-03-20 07:47:23 51°14.112 2°55.421 -999 -999 -999 -999 -999
2008-03-20 07:47:28 51°14.122 2°55.412 -999 -999 -999 -999 -999
2008-03-20 07:47:33 51°14.133 2°55.404 -999 -999 -999 -999 -999
2008-03-20 07:47:38 51°14.143 2°55.395 -999 -999 -999 -999 -999
2008-03-20 07:47:43 51°14.154 2°55.387 -999 -999 -999 -999 -999
2008-03-20 07:47:48 51°14.164 2°55.377 -999 -999 -999 -999 -999
2008-03-20 07:47:53 51°14.174 2°55.368 -999 -999 -999 -999 -999
2008-03-20 07:47:58 51°14.184 2°55.358 -999 -999 -999 -999 -999
2008-03-20 07:48:03 51°14.194 2°55.348 -999 -999 -999 -999 -999
2008-03-20 07:48:08 51°14.203 2°55.337 -999 -999 -999 -999 -999
2008-03-20 07:48:13 51°14.213 2°55.326 -999 -999 -999 -999 -999
2008-03-20 07:48:18 51°14.222 2°55.315 -999 -999 -999 -999 -999
2008-03-20 07:48:23 51°14.232 2°55.302 -999 -999 -999 -999 -999
2008-03-20 07:48:28 51°14.242 2°55.289 -999 -999 -999 -999 -999
2008-03-20 07:48:33 51°14.251 2°55.275 -999 -999 -999 -999 -999
2008-03-20 07:48:38 51°14.262 2°55.26 -999 -999 -999 -999 -999
2008-03-20 07:48:43 51°14.271 2°55.244 -999 -999 -999 -999 -999
2008-03-20 07:48:48 51°14.281 2°55.227 -999 -999 -999 -999 -999
2008-03-20 07:48:53 51°14.292 2°55.21 -999 -999 -999 -999 -999
2008-03-20 07:48:58 51°14.302 2°55.193 -999 -999 -999 -999 -999
2008-03-20 07:49:03 51°14.312 2°55.175 -999 -999 -999 -999 -999
2008-03-20 07:49:08 51°14.322 2°55.158 -999 -999 -999 -999 -999
2008-03-20 07:49:13 51°14.333 2°55.14 -999 -999 -999 -999 -999
2008-03-20 07:49:18 51°14.343 2°55.121 -999 -999 -999 -999 -999
2008-03-20 07:49:23 51°14.352 2°55.102 -999 -999 -999 -999 -999
2008-03-20 07:49:28 51°14.362 2°55.083 -999 -999 -999 -999 -999
2008-03-20 07:49:33 51°14.371 2°55.063 -999 -999 -999 -999 -999
2008-03-20 07:49:38 51°14.38 2°55.042 -999 -999 -999 -999 -999
2008-03-20 07:49:43 51°14.388 2°55.022 -999 -999 -999 -999 -999
2008-03-20 07:49:48 51°14.397 2°55 -999 -999 -999 -999 -999
2008-03-20 07:49:53 51°14.405 2°54.978 -999 -999 -999 -999 -999
2008-03-20 07:49:58 51°14.413 2°54.955 -999 -999 -999 -999 -999
2008-03-20 07:50:03 51°14.421 2°54.932 -999 -999 -999 -999 -999
2008-03-20 07:50:08 51°14.429 2°54.91 -999 -999 -999 -999 -999
2008-03-20 07:50:13 51°14.437 2°54.886 -999 -999 -999 -999 -999
2008-03-20 07:50:18 51°14.445 2°54.863 -999 -999 -999 -999 -999
2008-03-20 07:50:23 51°14.453 2°54.839 -999 -999 -999 -999 -999
2008-03-20 07:50:28 51°14.46 2°54.814 -999 -999 -999 -999 -999
2008-03-20 07:50:33 51°14.467 2°54.789 -999 -999 -999 -999 -999
2008-03-20 07:50:38 51°14.474 2°54.764 -999 -999 -999 -999 -999
2008-03-20 07:50:43 51°14.481 2°54.738 -999 -999 -999 -999 -999
2008-03-20 07:50:48 51°14.488 2°54.713 -999 -999 -999 -999 -999
2008-03-20 07:50:53 51°14.494 2°54.687 -999 -999 -999 -999 -999
2008-03-20 07:50:58 51°14.501 2°54.662 -999 -999 -999 -999 -999
2008-03-20 07:51:03 51°14.507 2°54.636 -999 -999 -999 -999 -999
2008-03-20 07:51:08 51°14.513 2°54.611 -999 -999 -999 -999 -999
2008-03-20 07:51:13 51°14.519 2°54.585 -999 -999 -999 -999 -999
2008-03-20 07:51:18 51°14.526 2°54.559 -999 -999 -999 -999 -999
2008-03-20 07:51:23 51°14.532 2°54.534 -999 -999 -999 -999 -999
2008-03-20 07:51:28 51°14.539 2°54.508 -999 -999 -999 -999 -999
2008-03-20 07:51:33 51°14.545 2°54.483 -999 -999 -999 -999 -999
2008-03-20 07:51:38 51°14.551 2°54.457 -999 -999 -999 -999 -999
2008-03-20 07:51:43 51°14.558 2°54.432 -999 -999 -999 -999 -999
2008-03-20 07:51:48 51°14.564 2°54.406 -999 -999 -999 -999 -999
2008-03-20 07:51:53 51°14.571 2°54.38 -999 -999 -999 -999 -999
2008-03-20 07:51:58 51°14.577 2°54.355 -999 -999 -999 -999 -999
2008-03-20 07:52:03 51°14.584 2°54.329 -999 -999 -999 -999 -999
2008-03-20 07:52:08 51°14.591 2°54.303 -999 -999 -999 -999 -999
2008-03-20 07:52:13 51°14.598 2°54.278 -999 -999 -999 -999 -999
2008-03-20 07:52:18 51°14.604 2°54.252 -999 -999 -999 -999 -999
2008-03-20 07:52:23 51°14.611 2°54.226 -999 -999 -999 -999 -999
2008-03-20 07:52:28 51°14.617 2°54.201 -999 -999 -999 -999 -999
2008-03-20 07:52:33 51°14.624 2°54.175 -999 -999 -999 -999 -999
2008-03-20 07:52:38 51°14.63 2°54.149 -999 -999 -999 -999 -999
2008-03-20 07:52:43 51°14.637 2°54.123 -999 -999 -999 -999 -999
2008-03-20 07:52:48 51°14.642 2°54.098 -999 -999 -999 -999 -999
2008-03-20 07:52:53 51°14.646 2°54.071 -999 -999 -999 -999 -999
2008-03-20 07:52:58 51°14.65 2°54.044 -999 -999 -999 -999 -999
2008-03-20 07:53:03 51°14.655 2°54.017 -999 -999 -999 -999 -999
2008-03-20 07:53:08 51°14.659 2°53.99 -999 -999 -999 -999 -999
2008-03-20 07:53:13 51°14.664 2°53.962 -999 -999 -999 -999 -999
2008-03-20 07:53:18 51°14.667 2°53.935 -999 -999 -999 -999 -999
2008-03-20 07:53:23 51°14.672 2°53.908 -999 -999 -999 -999 -999
2008-03-20 07:53:28 51°14.676 2°53.88 -999 -999 -999 -999 -999
2008-03-20 07:53:33 51°14.68 2°53.854 -999 -999 -999 -999 -999
2008-03-20 07:53:38 51°14.684 2°53.827 -999 -999 -999 -999 -999
2008-03-20 07:53:43 51°14.688 2°53.8 -999 -999 -999 -999 -999
2008-03-20 07:53:48 51°14.692 2°53.774 -999 -999 -999 -999 -999
2008-03-20 07:53:53 51°14.696 2°53.747 -999 -999 -999 -999 -999
2008-03-20 07:53:58 51°14.7 2°53.72 -999 -999 -999 -999 -999
2008-03-20 07:54:03 51°14.705 2°53.694 -999 -999 -999 -999 -999
2008-03-20 07:54:08 51°14.708 2°53.667 -999 -999 -999 -999 -999
2008-03-20 07:54:13 51°14.71 2°53.639 -999 -999 -999 -999 -999
2008-03-20 07:54:18 51°14.711 2°53.612 -999 -999 -999 -999 -999
2008-03-20 07:54:23 51°14.713 2°53.584 -999 -999 -999 -999 -999
2008-03-20 07:54:28 51°14.715 2°53.556 -999 -999 -999 -999 -999
2008-03-20 07:54:33 51°14.716 2°53.529 -999 -999 -999 -999 -999
2008-03-20 07:54:38 51°14.718 2°53.501 -999 -999 -999 -999 -999
2008-03-20 07:54:43 51°14.719 2°53.473 -999 -999 -999 -999 -999
2008-03-20 07:54:48 51°14.721 2°53.445 -999 -999 -999 -999 -999
2008-03-20 07:54:53 51°14.721 2°53.417 -999 -999 -999 -999 -999
2008-03-20 07:54:58 51°14.723 2°53.388 -999 -999 -999 -999 -999
2008-03-20 07:55:03 51°14.724 2°53.361 -999 -999 -999 -999 -999
2008-03-20 07:55:08 51°14.726 2°53.333 -999 -999 -999 -999 -999
2008-03-20 07:55:13 51°14.727 2°53.305 -999 -999 -999 -999 -999
2008-03-20 07:55:18 51°14.729 2°53.277 -999 -999 -999 -999 -999
2008-03-20 07:55:23 51°14.731 2°53.25 -999 -999 -999 -999 -999
2008-03-20 07:55:28 51°14.732 2°53.222 -999 -999 -999 -999 -999
2008-03-20 07:55:33 51°14.733 2°53.194 -999 -999 -999 -999 -999
2008-03-20 07:55:38 51°14.735 2°53.166 -999 -999 -999 -999 -999
2008-03-20 07:55:43 51°14.736 2°53.138 -999 -999 -999 -999 -999
2008-03-20 07:55:48 51°14.738 2°53.111 -999 -999 -999 -999 -999
2008-03-20 07:55:53 51°14.74 2°53.082 -999 -999 -999 -999 -999
2008-03-20 07:55:58 51°14.741 2°53.055 -999 -999 -999 -999 -999
2008-03-20 07:56:03 51°14.743 2°53.027 -999 -999 -999 -999 -999
2008-03-20 07:56:08 51°14.744 2°52.999 -999 -999 -999 -999 -999
2008-03-20 07:56:13 51°14.745 2°52.97 -999 -999 -999 -999 -999
2008-03-20 07:56:18 51°14.747 2°52.942 -999 -999 -999 -999 -999
2008-03-20 07:56:23 51°14.748 2°52.914 -999 -999 -999 -999 -999
2008-03-20 07:56:28 51°14.75 2°52.886 -999 -999 -999 -999 -999
2008-03-20 07:56:33 51°14.75 2°52.858 -999 -999 -999 -999 -999
2008-03-20 07:56:38 51°14.751 2°52.83 -999 -999 -999 -999 -999
2008-03-20 07:56:43 51°14.752 2°52.801 -999 -999 -999 -999 -999
2008-03-20 07:56:48 51°14.753 2°52.773 -999 -999 -999 -999 -999
2008-03-20 07:56:53 51°14.754 2°52.745 -999 -999 -999 -999 -999
2008-03-20 07:56:58 51°14.755 2°52.716 -999 -999 -999 -999 -999
2008-03-20 07:57:03 51°14.756 2°52.688 -999 -999 -999 -999 -999
2008-03-20 07:57:08 51°14.757 2°52.66 -999 -999 -999 -999 -999
2008-03-20 07:57:13 51°14.758 2°52.631 -999 -999 -999 -999 -999
2008-03-20 07:57:18 51°14.759 2°52.603 -999 -999 -999 -999 -999
2008-03-20 07:57:23 51°14.76 2°52.574 -999 -999 -999 -999 -999
2008-03-20 07:57:28 51°14.76 2°52.546 -999 -999 -999 -999 -999
2008-03-20 07:57:33 51°14.761 2°52.518 -999 -999 -999 -999 -999
2008-03-20 07:57:38 51°14.763 2°52.489 -999 -999 -999 -999 -999
2008-03-20 07:57:43 51°14.764 2°52.461 -999 -999 -999 -999 -999
2008-03-20 07:57:48 51°14.766 2°52.433 -999 -999 -999 -999 -999
2008-03-20 07:57:53 51°14.767 2°52.404 -999 -999 -999 -999 -999
2008-03-20 07:57:58 51°14.769 2°52.376 -999 -999 -999 -999 -999
2008-03-20 07:58:03 51°14.771 2°52.348 -999 -999 -999 -999 -999
2008-03-20 07:58:08 51°14.772 2°52.319 -999 -999 -999 -999 -999
2008-03-20 07:58:13 51°14.773 2°52.29 -999 -999 -999 -999 -999
2008-03-20 07:58:18 51°14.774 2°52.262 -999 -999 -999 -999 -999
2008-03-20 07:58:23 51°14.775 2°52.234 -999 -999 -999 -999 -999
2008-03-20 07:58:28 51°14.776 2°52.206 -999 -999 -999 -999 -999
2008-03-20 07:58:33 51°14.777 2°52.177 -999 -999 -999 -999 -999
2008-03-20 07:58:38 51°14.778 2°52.149 -999 -999 -999 -999 -999
2008-03-20 07:58:43 51°14.779 2°52.12 -999 -999 -999 -999 -999
2008-03-20 07:58:48 51°14.78 2°52.092 -999 -999 -999 -999 -999
2008-03-20 07:58:53 51°14.781 2°52.063 -999 -999 -999 -999 -999
2008-03-20 07:58:58 51°14.782 2°52.035 -999 -999 -999 -999 -999
2008-03-20 07:59:03 51°14.783 2°52.006 -999 -999 -999 -999 -999
2008-03-20 07:59:08 51°14.784 2°51.978 -999 -999 -999 -999 -999
2008-03-20 07:59:13 51°14.785 2°51.949 -999 -999 -999 -999 -999
2008-03-20 07:59:18 51°14.786 2°51.92 -999 -999 -999 -999 -999
2008-03-20 07:59:23 51°14.787 2°51.892 -999 -999 -999 -999 -999
2008-03-20 07:59:28 51°14.787 2°51.863 -999 -999 -999 -999 -999
2008-03-20 07:59:33 51°14.788 2°51.834 -999 -999 -999 -999 -999
2008-03-20 07:59:38 51°14.789 2°51.805 -999 -999 -999 -999 -999
2008-03-20 07:59:43 51°14.79 2°51.777 -999 -999 -999 -999 -999
2008-03-20 07:59:48 51°14.791 2°51.748 -999 -999 -999 -999 -999
2008-03-20 07:59:53 51°14.792 2°51.72 -999 -999 -999 -999 -999
2008-03-20 07:59:58 51°14.793 2°51.691 -999 -999 -999 -999 -999
2008-03-20 08:00:03 51°14.794 2°51.662 -999 -999 -999 -999 -999
2008-03-20 08:00:08 51°14.795 2°51.633 -999 -999 -999 -999 -999
2008-03-20 08:00:13 51°14.796 2°51.604 -999 -999 -999 -999 -999
2008-03-20 08:00:18 51°14.797 2°51.575 -999 -999 -999 -999 -999
2008-03-20 08:00:23 51°14.798 2°51.546 -999 -999 -999 -999 -999
2008-03-20 08:00:28 51°14.799 2°51.517 -999 -999 -999 -999 -999
2008-03-20 08:00:33 51°14.8 2°51.488 -999 -999 -999 -999 -999
2008-03-20 08:00:38 51°14.801 2°51.458 -999 -999 -999 -999 -999
2008-03-20 08:00:43 51°14.801 2°51.429 -999 -999 -999 -999 -999
2008-03-20 08:00:48 51°14.803 2°51.4 -999 -999 -999 -999 -999
2008-03-20 08:00:53 51°14.803 2°51.37 -999 -999 -999 -999 -999
2008-03-20 08:00:58 51°14.805 2°51.341 -999 -999 -999 -999 -999
2008-03-20 08:01:03 51°14.806 2°51.312 -999 -999 -999 -999 -999
2008-03-20 08:01:08 51°14.807 2°51.283 -999 -999 -999 -999 -999
2008-03-20 08:01:13 51°14.808 2°51.253 -999 -999 -999 -999 -999
2008-03-20 08:01:18 51°14.809 2°51.224 -999 -999 -999 -999 -999
2008-03-20 08:01:23 51°14.811 2°51.195 -999 -999 -999 -999 -999
2008-03-20 08:01:28 51°14.812 2°51.165 -999 -999 -999 -999 -999
2008-03-20 08:01:33 51°14.813 2°51.136 -999 -999 -999 -999 -999
2008-03-20 08:01:38 51°14.814 2°51.107 -999 -999 -999 -999 -999
2008-03-20 08:01:43 51°14.816 2°51.077 -999 -999 -999 -999 -999
2008-03-20 08:01:48 51°14.817 2°51.048 -999 -999 -999 -999 -999
2008-03-20 08:01:53 51°14.818 2°51.019 -999 -999 -999 -999 -999
2008-03-20 08:01:58 51°14.819 2°50.989 -999 -999 -999 -999 -999
2008-03-20 08:02:03 51°14.82 2°50.96 -999 -999 -999 -999 -999
2008-03-20 08:02:08 51°14.821 2°50.931 -999 -999 -999 -999 -999
2008-03-20 08:02:13 51°14.822 2°50.901 -999 -999 -999 -999 -999
2008-03-20 08:02:18 51°14.823 2°50.872 -999 -999 -999 -999 -999
2008-03-20 08:02:23 51°14.824 2°50.843 -999 -999 -999 -999 -999
2008-03-20 08:02:28 51°14.825 2°50.814 -999 -999 -999 -999 -999
2008-03-20 08:02:33 51°14.826 2°50.784 -999 -999 -999 -999 -999
2008-03-20 08:02:38 51°14.827 2°50.755 -999 -999 -999 -999 -999
2008-03-20 08:02:43 51°14.829 2°50.726 -999 -999 -999 -999 -999
2008-03-20 08:02:48 51°14.83 2°50.697 -999 -999 -999 -999 -999
2008-03-20 08:02:53 51°14.831 2°50.667 -999 -999 -999 -999 -999
2008-03-20 08:02:58 51°14.832 2°50.638 -999 -999 -999 -999 -999
2008-03-20 08:03:03 51°14.833 2°50.608 -999 -999 -999 -999 -999
2008-03-20 08:03:08 51°14.835 2°50.579 -999 -999 -999 -999 -999
2008-03-20 08:03:13 51°14.836 2°50.55 -999 -999 -999 -999 -999
2008-03-20 08:03:18 51°14.837 2°50.52 -999 -999 -999 -999 -999
2008-03-20 08:03:23 51°14.837 2°50.49 -999 -999 -999 -999 -999
2008-03-20 08:03:28 51°14.838 2°50.461 -999 -999 -999 -999 -999
2008-03-20 08:03:33 51°14.838 2°50.431 -999 -999 -999 -999 -999
2008-03-20 08:03:38 51°14.838 2°50.402 -999 -999 -999 -999 -999
2008-03-20 08:03:43 51°14.839 2°50.372 -999 -999 -999 -999 -999
2008-03-20 08:03:48 51°14.839 2°50.343 -999 -999 -999 -999 -999
2008-03-20 08:03:53 51°14.839 2°50.313 -999 -999 -999 -999 -999
2008-03-20 08:03:58 51°14.839 2°50.283 -999 -999 -999 -999 -999
2008-03-20 08:04:03 51°14.84 2°50.253 -999 -999 -999 -999 -999
2008-03-20 08:04:08 51°14.84 2°50.224 -999 -999 -999 -999 -999
2008-03-20 08:04:13 51°14.839 2°50.194 -999 -999 -999 -999 -999
2008-03-20 08:04:18 51°14.84 2°50.164 -999 -999 -999 -999 -999
2008-03-20 08:04:23 51°14.84 2°50.135 -999 -999 -999 -999 -999
2008-03-20 08:04:28 51°14.84 2°50.105 -999 -999 -999 -999 -999
2008-03-20 08:04:33 51°14.841 2°50.075 -999 -999 -999 -999 -999
2008-03-20 08:04:38 51°14.841 2°50.046 -999 -999 -999 -999 -999
2008-03-20 08:04:43 51°14.842 2°50.016 -999 -999 -999 -999 -999
2008-03-20 08:04:48 51°14.842 2°49.987 -999 -999 -999 -999 -999
2008-03-20 08:04:53 51°14.842 2°49.958 -999 -999 -999 -999 -999
2008-03-20 08:04:58 51°14.843 2°49.928 -999 -999 -999 -999 -999
2008-03-20 08:05:03 51°14.843 2°49.899 -999 -999 -999 -999 -999
2008-03-20 08:05:08 51°14.844 2°49.869 -999 -999 -999 -999 -999
2008-03-20 08:05:13 51°14.844 2°49.84 -999 -999 -999 -999 -999
2008-03-20 08:05:18 51°14.844 2°49.811 -999 -999 -999 -999 -999
2008-03-20 08:05:23 51°14.845 2°49.782 -999 -999 -999 -999 -999
2008-03-20 08:05:28 51°14.845 2°49.753 -999 -999 -999 -999 -999
2008-03-20 08:05:33 51°14.846 2°49.724 -999 -999 -999 -999 -999
2008-03-20 08:05:38 51°14.846 2°49.695 -999 -999 -999 -999 -999
2008-03-20 08:05:43 51°14.846 2°49.666 -999 -999 -999 -999 -999
2008-03-20 08:05:48 51°14.846 2°49.637 -999 -999 -999 -999 -999
2008-03-20 08:05:53 51°14.847 2°49.608 -999 -999 -999 -999 -999
2008-03-20 08:05:58 51°14.847 2°49.579 -999 -999 -999 -999 -999
2008-03-20 08:06:03 51°14.848 2°49.55 -999 -999 -999 -999 -999
2008-03-20 08:06:08 51°14.848 2°49.521 -999 -999 -999 -999 -999
2008-03-20 08:06:13 51°14.848 2°49.492 -999 -999 -999 -999 -999
2008-03-20 08:06:18 51°14.849 2°49.463 -999 -999 -999 -999 -999
2008-03-20 08:06:23 51°14.85 2°49.434 -999 -999 -999 -999 -999
2008-03-20 08:06:28 51°14.85 2°49.406 -999 -999 -999 -999 -999
2008-03-20 08:06:33 51°14.851 2°49.377 -999 -999 -999 -999 -999
2008-03-20 08:06:38 51°14.851 2°49.348 -999 -999 -999 -999 -999
2008-03-20 08:06:43 51°14.852 2°49.319 -999 -999 -999 -999 -999
2008-03-20 08:06:48 51°14.853 2°49.29 -999 -999 -999 -999 -999
2008-03-20 08:06:53 51°14.853 2°49.261 -999 -999 -999 -999 -999
2008-03-20 08:06:58 51°14.854 2°49.232 -999 -999 -999 -999 -999
2008-03-20 08:07:03 51°14.853 2°49.203 -999 -999 -999 -999 -999
2008-03-20 08:07:08 51°14.854 2°49.174 -999 -999 -999 -999 -999
2008-03-20 08:07:13 51°14.854 2°49.145 -999 -999 -999 -999 -999
2008-03-20 08:07:18 51°14.855 2°49.117 -999 -999 -999 -999 -999
2008-03-20 08:07:23 51°14.855 2°49.088 -999 -999 -999 -999 -999
2008-03-20 08:07:28 51°14.856 2°49.059 -999 -999 -999 -999 -999
2008-03-20 08:07:33 51°14.856 2°49.03 -999 -999 -999 -999 -999
2008-03-20 08:07:38 51°14.857 2°49.001 -999 -999 -999 -999 -999
2008-03-20 08:07:43 51°14.856 2°48.972 -999 -999 -999 -999 -999
2008-03-20 08:07:48 51°14.857 2°48.944 -999 -999 -999 -999 -999
2008-03-20 08:07:53 51°14.856 2°48.915 -999 -999 -999 -999 -999
2008-03-20 08:07:58 51°14.856 2°48.886 -999 -999 -999 -999 -999
2008-03-20 08:08:03 51°14.855 2°48.857 -999 -999 -999 -999 -999
2008-03-20 08:08:08 51°14.854 2°48.829 -999 -999 -999 -999 -999
2008-03-20 08:08:13 51°14.853 2°48.8 -999 -999 -999 -999 -999
2008-03-20 08:08:18 51°14.853 2°48.771 -999 -999 -999 -999 -999
2008-03-20 08:08:23 51°14.852 2°48.743 -999 -999 -999 -999 -999
2008-03-20 08:08:28 51°14.851 2°48.714 -999 -999 -999 -999 -999
2008-03-20 08:08:33 51°14.85 2°48.686 -999 -999 -999 -999 -999
2008-03-20 08:08:38 51°14.848 2°48.658 -999 -999 -999 -999 -999
2008-03-20 08:08:43 51°14.846 2°48.629 -999 -999 -999 -999 -999
2008-03-20 08:08:48 51°14.844 2°48.601 -999 -999 -999 -999 -999
2008-03-20 08:08:53 51°14.842 2°48.573 -999 -999 -999 -999 -999
2008-03-20 08:08:58 51°14.841 2°48.545 -999 -999 -999 -999 -999
2008-03-20 08:09:03 51°14.839 2°48.516 -999 -999 -999 -999 -999
2008-03-20 08:09:08 51°14.837 2°48.488 -999 -999 -999 -999 -999
2008-03-20 08:09:13 51°14.836 2°48.46 -999 -999 -999 -999 -999
2008-03-20 08:09:18 51°14.835 2°48.432 -999 -999 -999 -999 -999
2008-03-20 08:09:23 51°14.832 2°48.404 -999 -999 -999 -999 -999
2008-03-20 08:09:28 51°14.832 2°48.376 -999 -999 -999 -999 -999
2008-03-20 08:09:33 51°14.83 2°48.347 -999 -999 -999 -999 -999
2008-03-20 08:09:38 51°14.828 2°48.319 -999 -999 -999 -999 -999
2008-03-20 08:09:43 51°14.827 2°48.29 -999 -999 -999 -999 -999
2008-03-20 08:09:48 51°14.824 2°48.262 -999 -999 -999 -999 -999
2008-03-20 08:09:53 51°14.823 2°48.234 -999 -999 -999 -999 -999
2008-03-20 08:09:58 51°14.822 2°48.205 -999 -999 -999 -999 -999
2008-03-20 08:10:03 51°14.82 2°48.177 -999 -999 -999 -999 -999
2008-03-20 08:10:08 51°14.818 2°48.149 -999 -999 -999 -999 -999
2008-03-20 08:10:13 51°14.817 2°48.12 -999 -999 -999 -999 -999
2008-03-20 08:10:18 51°14.816 2°48.092 -999 -999 -999 -999 -999
2008-03-20 08:10:23 51°14.814 2°48.063 -999 -999 -999 -999 -999
2008-03-20 08:10:28 51°14.813 2°48.035 -999 -999 -999 -999 -999
2008-03-20 08:10:33 51°14.812 2°48.007 -999 -999 -999 -999 -999
2008-03-20 08:10:38 51°14.81 2°47.979 -999 -999 -999 -999 -999
2008-03-20 08:10:43 51°14.809 2°47.951 -999 -999 -999 -999 -999
2008-03-20 08:10:48 51°14.808 2°47.922 -999 -999 -999 -999 -999
2008-03-20 08:10:53 51°14.807 2°47.894 -999 -999 -999 -999 -999
2008-03-20 08:10:58 51°14.805 2°47.866 -999 -999 -999 -999 -999
2008-03-20 08:11:03 51°14.804 2°47.837 -999 -999 -999 -999 -999
2008-03-20 08:11:08 51°14.803 2°47.809 -999 -999 -999 -999 -999
2008-03-20 08:11:13 51°14.8 2°47.781 -999 -999 -999 -999 -999
2008-03-20 08:11:18 51°14.799 2°47.752 -999 -999 -999 -999 -999
2008-03-20 08:11:23 51°14.798 2°47.724 -999 -999 -999 -999 -999
2008-03-20 08:11:28 51°14.796 2°47.696 -999 -999 -999 -999 -999
2008-03-20 08:11:33 51°14.795 2°47.667 -999 -999 -999 -999 -999
2008-03-20 08:11:38 51°14.793 2°47.639 -999 -999 -999 -999 -999
2008-03-20 08:11:43 51°14.791 2°47.61 -999 -999 -999 -999 -999
2008-03-20 08:11:48 51°14.79 2°47.582 -999 -999 -999 -999 -999
2008-03-20 08:11:53 51°14.788 2°47.553 -999 -999 -999 -999 -999
2008-03-20 08:11:58 51°14.787 2°47.525 -999 -999 -999 -999 -999
2008-03-20 08:12:03 51°14.785 2°47.496 -999 -999 -999 -999 -999
2008-03-20 08:12:08 51°14.783 2°47.468 -999 -999 -999 -999 -999
2008-03-20 08:12:13 51°14.782 2°47.44 -999 -999 -999 -999 -999
2008-03-20 08:12:18 51°14.78 2°47.412 -999 -999 -999 -999 -999
2008-03-20 08:12:23 51°14.779 2°47.383 -999 -999 -999 -999 -999
2008-03-20 08:12:28 51°14.777 2°47.355 -999 -999 -999 -999 -999
2008-03-20 08:12:33 51°14.777 2°47.326 -999 -999 -999 -999 -999
2008-03-20 08:12:38 51°14.774 2°47.298 -999 -999 -999 -999 -999
2008-03-20 08:12:43 51°14.774 2°47.269 -999 -999 -999 -999 -999
2008-03-20 08:12:48 51°14.772 2°47.241 -999 -999 -999 -999 -999
2008-03-20 08:12:53 51°14.77 2°47.212 -999 -999 -999 -999 -999
2008-03-20 08:12:57 51°14.77 2°47.19 -999 -999 -999 -999 -999
2008-03-20 08:13:03 51°14.767 2°47.156 -999 -999 -999 -999 -999
2008-03-20 08:13:08 51°14.766 2°47.128 -999 -999 -999 -999 -999
2008-03-20 08:13:13 51°14.765 2°47.1 -999 -999 -999 -999 -999
2008-03-20 08:13:17 51°14.764 2°47.077 -999 -999 -999 -999 -999
2008-03-20 08:13:23 51°14.762 2°47.043 -999 -999 -999 -999 -999
2008-03-20 08:13:28 51°14.762 2°47.015 -999 -999 -999 -999 -999
2008-03-20 08:13:33 51°14.759 2°46.986 -999 -999 -999 -999 -999
2008-03-20 08:13:38 51°14.758 2°46.958 -999 -999 -999 -999 -999
2008-03-20 08:13:42 51°14.755 2°46.935 -999 -999 -999 -999 -999
2008-03-20 08:13:48 51°14.755 2°46.901 -999 -999 -999 -999 -999
2008-03-20 08:13:53 51°14.753 2°46.873 -999 -999 -999 -999 -999
2008-03-20 08:13:58 51°14.752 2°46.845 -999 -999 -999 -999 -999
2008-03-20 08:14:02 51°14.75 2°46.822 -999 -999 -999 -999 -999
2008-03-20 08:14:08 51°14.749 2°46.787 -999 -999 -999 -999 -999
2008-03-20 08:14:13 51°14.747 2°46.759 -999 -999 -999 -999 -999
2008-03-20 08:14:18 51°14.746 2°46.73 -999 -999 -999 -999 -999
2008-03-20 08:14:22 51°14.745 2°46.708 -999 -999 -999 -999 -999
2008-03-20 08:14:28 51°14.743 2°46.674 -999 -999 -999 -999 -999
2008-03-20 08:14:33 51°14.742 2°46.646 -999 -999 -999 -999 -999
2008-03-20 08:14:38 51°14.74 2°46.617 -999 -999 -999 -999 -999
2008-03-20 08:14:43 51°14.74 2°46.589 -999 -999 -999 -999 -999
2008-03-20 08:14:48 51°14.738 2°46.561 -999 -999 -999 -999 -999
2008-03-20 08:14:53 51°14.737 2°46.533 -999 -999 -999 -999 -999
2008-03-20 08:14:57 51°14.736 2°46.51 -999 -999 -999 -999 -999
2008-03-20 08:15:03 51°14.734 2°46.476 -999 -999 -999 -999 -999
2008-03-20 08:15:08 51°14.732 2°46.448 -999 -999 -999 -999 -999
2008-03-20 08:15:13 51°14.731 2°46.42 -999 -999 -999 -999 -999
2008-03-20 08:15:17 51°14.729 2°46.397 -999 -999 -999 -999 -999
2008-03-20 08:15:23 51°14.727 2°46.364 -999 -999 -999 -999 -999
2008-03-20 08:15:28 51°14.726 2°46.335 -999 -999 -999 -999 -999
2008-03-20 08:15:33 51°14.724 2°46.308 -999 -999 -999 -999 -999
2008-03-20 08:15:38 51°14.723 2°46.28 -999 -999 -999 -999 -999
2008-03-20 08:15:42 51°14.721 2°46.257 -999 -999 -999 -999 -999
2008-03-20 08:15:48 51°14.72 2°46.223 -999 -999 -999 -999 -999
2008-03-20 08:15:53 51°14.718 2°46.195 -999 -999 -999 -999 -999
2008-03-20 08:15:58 51°14.717 2°46.167 -999 -999 -999 -999 -999
2008-03-20 08:16:02 51°14.716 2°46.145 -999 -999 -999 -999 -999
2008-03-20 08:16:08 51°14.714 2°46.111 -999 -999 -999 -999 -999
2008-03-20 08:16:13 51°14.712 2°46.083 -999 -999 -999 -999 -999
2008-03-20 08:16:18 51°14.712 2°46.054 -999 -999 -999 -999 -999
2008-03-20 08:16:22 51°14.709 2°46.032 -999 -999 -999 -999 -999
2008-03-20 08:16:28 51°14.708 2°45.998 -999 -999 -999 -999 -999
2008-03-20 08:16:33 51°14.706 2°45.97 -999 -999 -999 -999 -999
2008-03-20 08:16:38 51°14.704 2°45.942 -999 -999 -999 -999 -999
2008-03-20 08:16:43 51°14.703 2°45.914 -999 -999 -999 -999 -999
2008-03-20 08:16:48 51°14.701 2°45.886 -999 -999 -999 -999 -999
2008-03-20 08:16:53 51°14.7 2°45.858 -999 -999 -999 -999 -999
2008-03-20 08:16:58 51°14.698 2°45.83 -999 -999 -999 -999 -999
2008-03-20 08:17:03 51°14.697 2°45.802 -999 -999 -999 -999 -999
2008-03-20 08:17:08 51°14.694 2°45.773 -999 -999 -999 -999 -999
2008-03-20 08:17:13 51°14.694 2°45.745 -999 -999 -999 -999 -999
2008-03-20 08:17:17 51°14.693 2°45.722 -999 -999 -999 -999 -999
2008-03-20 08:17:23 51°14.691 2°45.689 -999 -999 -999 -999 -999
2008-03-20 08:17:28 51°14.689 2°45.66 -999 -999 -999 -999 -999
2008-03-20 08:17:33 51°14.688 2°45.631 -999 -999 -999 -999 -999
2008-03-20 08:17:38 51°14.687 2°45.603 -999 -999 -999 -999 -999
2008-03-20 08:17:43 51°14.685 2°45.574 -999 -999 -999 -999 -999
2008-03-20 08:17:48 51°14.684 2°45.546 -999 -999 -999 -999 -999
2008-03-20 08:17:53 51°14.682 2°45.517 -999 -999 -999 -999 -999
2008-03-20 08:17:58 51°14.681 2°45.489 -999 -999 -999 -999 -999
2008-03-20 08:18:02 51°14.679 2°45.466 -999 -999 -999 -999 -999
2008-03-20 08:18:08 51°14.679 2°45.432 -999 -999 -999 -999 -999
2008-03-20 08:18:13 51°14.676 2°45.403 -999 -999 -999 -999 -999
2008-03-20 08:18:17 51°14.675 2°45.38 -999 -999 -999 -999 -999
2008-03-20 08:18:22 51°14.673 2°45.351 -999 -999 -999 -999 -999
2008-03-20 08:18:28 51°14.672 2°45.316 -999 -999 -999 -999 -999
2008-03-20 08:18:33 51°14.67 2°45.288 -999 -999 -999 -999 -999
2008-03-20 08:18:38 51°14.669 2°45.259 -999 -999 -999 -999 -999
2008-03-20 08:18:42 51°14.666 2°45.236 -999 -999 -999 -999 -999
2008-03-20 08:18:48 51°14.666 2°45.201 -999 -999 -999 -999 -999
2008-03-20 08:18:53 51°14.663 2°45.173 -999 -999 -999 -999 -999
2008-03-20 08:18:58 51°14.663 2°45.144 -999 -999 -999 -999 -999
2008-03-20 08:19:03 51°14.661 2°45.116 -999 -999 -999 -999 -999
2008-03-20 08:19:08 51°14.66 2°45.087 -999 -999 -999 -999 -999
2008-03-20 08:19:13 51°14.658 2°45.058 -999 -999 -999 -999 -999
2008-03-20 08:19:18 51°14.656 2°45.029 -999 -999 -999 -999 -999
2008-03-20 08:19:23 51°14.655 2°45.001 -999 -999 -999 -999 -999
2008-03-20 08:19:28 51°14.653 2°44.972 -999 -999 -999 -999 -999
2008-03-20 08:19:33 51°14.652 2°44.943 -999 -999 -999 -999 -999
2008-03-20 08:19:38 51°14.65 2°44.915 -999 -999 -999 -999 -999
2008-03-20 08:19:43 51°14.649 2°44.886 -999 -999 -999 -999 -999
2008-03-20 08:19:48 51°14.647 2°44.857 -999 -999 -999 -999 -999
2008-03-20 08:19:53 51°14.646 2°44.828 -999 -999 -999 -999 -999
2008-03-20 08:19:58 51°14.644 2°44.799 -999 -999 -999 -999 -999
2008-03-20 08:20:02 51°14.643 2°44.776 -999 -999 -999 -999 -999
2008-03-20 08:20:08 51°14.641 2°44.742 -999 -999 -999 -999 -999
2008-03-20 08:20:13 51°14.64 2°44.713 -999 -999 -999 -999 -999
2008-03-20 08:20:17 51°14.639 2°44.69 -999 -999 -999 -999 -999
2008-03-20 08:20:22 51°14.637 2°44.661 -999 -999 -999 -999 -999
2008-03-20 08:20:28 51°14.636 2°44.627 -999 -999 -999 -999 -999
2008-03-20 08:20:33 51°14.633 2°44.598 -999 -999 -999 -999 -999
2008-03-20 08:20:38 51°14.633 2°44.57 -999 -999 -999 -999 -999
2008-03-20 08:20:42 51°14.631 2°44.546 -999 -999 -999 -999 -999
2008-03-20 08:20:48 51°14.629 2°44.512 -999 -999 -999 -999 -999
2008-03-20 08:20:53 51°14.628 2°44.483 -999 -999 -999 -999 -999
2008-03-20 08:20:58 51°14.625 2°44.454 -999 -999 -999 -999 -999
2008-03-20 08:21:03 51°14.624 2°44.426 -999 -999 -999 -999 -999
2008-03-20 08:21:08 51°14.623 2°44.397 -999 -999 -999 -999 -999
2008-03-20 08:21:13 51°14.62 2°44.368 -999 -999 -999 -999 -999
2008-03-20 08:21:18 51°14.619 2°44.34 -999 -999 -999 -999 -999
2008-03-20 08:21:23 51°14.616 2°44.311 -999 -999 -999 -999 -999
2008-03-20 08:21:28 51°14.615 2°44.282 -999 -999 -999 -999 -999
2008-03-20 08:21:33 51°14.613 2°44.254 -999 -999 -999 -999 -999
2008-03-20 08:21:38 51°14.611 2°44.225 -999 -999 -999 -999 -999
2008-03-20 08:21:43 51°14.609 2°44.196 -999 -999 -999 -999 -999
2008-03-20 08:21:48 51°14.607 2°44.167 -999 -999 -999 -999 -999
2008-03-20 08:21:53 51°14.605 2°44.138 -999 -999 -999 -999 -999
2008-03-20 08:21:58 51°14.604 2°44.109 -999 -999 -999 -999 -999
2008-03-20 08:22:03 51°14.602 2°44.081 -999 -999 -999 -999 -999
2008-03-20 08:22:08 51°14.601 2°44.052 -999 -999 -999 -999 -999
2008-03-20 08:22:13 51°14.599 2°44.023 -999 -999 -999 -999 -999
2008-03-20 08:22:17 51°14.598 2°44 -999 -999 -999 -999 -999
2008-03-20 08:22:22 51°14.596 2°43.97 -999 -999 -999 -999 -999
2008-03-20 08:22:28 51°14.594 2°43.935 -999 -999 -999 -999 -999
2008-03-20 08:22:33 51°14.592 2°43.906 -999 -999 -999 -999 -999
2008-03-20 08:22:37 51°14.59 2°43.883 -999 -999 -999 -999 -999
2008-03-20 08:22:42 51°14.59 2°43.854 -999 -999 -999 -999 -999
2008-03-20 08:22:47 51°14.586 2°43.825 -999 -999 -999 -999 -999
2008-03-20 08:22:53 51°14.586 2°43.79 -999 -999 -999 -999 -999
2008-03-20 08:22:58 51°14.584 2°43.762 -999 -999 -999 -999 -999
2008-03-20 08:23:02 51°14.583 2°43.739 -999 -999 -999 -999 -999
2008-03-20 08:23:08 51°14.581 2°43.704 -999 -999 -999 -999 -999
2008-03-20 08:23:13 51°14.579 2°43.675 -999 -999 -999 -999 -999
2008-03-20 08:23:18 51°14.578 2°43.646 -999 -999 -999 -999 -999
2008-03-20 08:23:23 51°14.575 2°43.617 -999 -999 -999 -999 -999
2008-03-20 08:23:28 51°14.573 2°43.589 -999 -999 -999 -999 -999
2008-03-20 08:23:33 51°14.571 2°43.56 -999 -999 -999 -999 -999
2008-03-20 08:23:38 51°14.569 2°43.531 -999 -999 -999 -999 -999
2008-03-20 08:23:43 51°14.568 2°43.502 -999 -999 -999 -999 -999
2008-03-20 08:23:48 51°14.566 2°43.473 -999 -999 -999 -999 -999
2008-03-20 08:23:53 51°14.564 2°43.444 -999 -999 -999 -999 -999
2008-03-20 08:23:58 51°14.563 2°43.415 -999 -999 -999 -999 -999
2008-03-20 08:24:03 51°14.561 2°43.386 -999 -999 -999 -999 -999
2008-03-20 08:24:08 51°14.559 2°43.357 -999 -999 -999 -999 -999
2008-03-20 08:24:13 51°14.557 2°43.328 -999 -999 -999 -999 -999
2008-03-20 08:24:17 51°14.556 2°43.304 -999 -999 -999 -999 -999
2008-03-20 08:24:23 51°14.553 2°43.269 -999 -999 -999 -999 -999
2008-03-20 08:24:28 51°14.551 2°43.24 -999 -999 -999 -999 -999
2008-03-20 08:24:33 51°14.55 2°43.211 -999 -999 -999 -999 -999
2008-03-20 08:24:37 51°14.549 2°43.188 -999 -999 -999 -999 -999
2008-03-20 08:24:42 51°14.547 2°43.159 -999 -999 -999 -999 -999
2008-03-20 08:24:48 51°14.546 2°43.124 -999 -999 -999 -999 -999
2008-03-20 08:24:53 51°14.543 2°43.095 -999 -999 -999 -999 -999
2008-03-20 08:24:58 51°14.543 2°43.066 -999 -999 -999 -999 -999
2008-03-20 08:25:02 51°14.541 2°43.043 -999 -999 -999 -999 -999
2008-03-20 08:25:08 51°14.539 2°43.008 -999 -999 -999 -999 -999
2008-03-20 08:25:13 51°14.538 2°42.979 -999 -999 -999 -999 -999
2008-03-20 08:25:18 51°14.536 2°42.95 -999 -999 -999 -999 -999
2008-03-20 08:25:23 51°14.534 2°42.921 -999 -999 -999 -999 -999
2008-03-20 08:25:28 51°14.533 2°42.892 -999 -999 -999 -999 -999
2008-03-20 08:25:33 51°14.531 2°42.863 -999 -999 -999 -999 -999
2008-03-20 08:25:38 51°14.529 2°42.834 -999 -999 -999 -999 -999
2008-03-20 08:25:43 51°14.527 2°42.804 -999 -999 -999 -999 -999
2008-03-20 08:25:48 51°14.526 2°42.775 -999 -999 -999 -999 -999
2008-03-20 08:25:53 51°14.524 2°42.746 -999 -999 -999 -999 -999
2008-03-20 08:25:58 51°14.523 2°42.717 -999 -999 -999 -999 -999
2008-03-20 08:26:03 51°14.521 2°42.688 -999 -999 -999 -999 -999
2008-03-20 08:26:08 51°14.519 2°42.659 -999 -999 -999 -999 -999
2008-03-20 08:26:13 51°14.517 2°42.63 -999 -999 -999 -999 -999
2008-03-20 08:26:18 51°14.516 2°42.601 -999 -999 -999 -999 -999
2008-03-20 08:26:23 51°14.514 2°42.572 -999 -999 -999 -999 -999
2008-03-20 08:26:28 51°14.512 2°42.543 -999 -999 -999 -999 -999
2008-03-20 08:26:33 51°14.511 2°42.515 -999 -999 -999 -999 -999
2008-03-20 08:26:37 51°14.509 2°42.492 -999 -999 -999 -999 -999
2008-03-20 08:26:43 51°14.507 2°42.458 -999 -999 -999 -999 -999
2008-03-20 08:26:48 51°14.505 2°42.429 -999 -999 -999 -999 -999
2008-03-20 08:26:53 51°14.504 2°42.4 -999 -999 -999 -999 -999
2008-03-20 08:26:57 51°14.502 2°42.378 -999 -999 -999 -999 -999
2008-03-20 08:27:03 51°14.499 2°42.344 -999 -999 -999 -999 -999
2008-03-20 08:27:08 51°14.499 2°42.315 -999 -999 -999 -999 -999
2008-03-20 08:27:13 51°14.496 2°42.287 -999 -999 -999 -999 -999
2008-03-20 08:27:18 51°14.494 2°42.259 -999 -999 -999 -999 -999
2008-03-20 08:27:22 51°14.493 2°42.236 -999 -999 -999 -999 -999
2008-03-20 08:27:28 51°14.49 2°42.202 -999 -999 -999 -999 -999
2008-03-20 08:27:33 51°14.489 2°42.174 -999 -999 -999 -999 -999
2008-03-20 08:27:38 51°14.486 2°42.146 -999 -999 -999 -999 -999
2008-03-20 08:27:43 51°14.484 2°42.117 -999 -999 -999 -999 -999
2008-03-20 08:27:48 51°14.482 2°42.089 -999 -999 -999 -999 -999
2008-03-20 08:27:53 51°14.479 2°42.061 -999 -999 -999 -999 -999
2008-03-20 08:27:58 51°14.478 2°42.033 -999 -999 -999 -999 -999
2008-03-20 08:28:02 51°14.476 2°42.01 -999 -999 -999 -999 -999
2008-03-20 08:28:08 51°14.475 2°41.976 -999 -999 -999 -999 -999
2008-03-20 08:28:13 51°14.472 2°41.948 -999 -999 -999 -999 -999
2008-03-20 08:28:18 51°14.471 2°41.919 -999 -999 -999 -999 -999
2008-03-20 08:28:23 51°14.468 2°41.89 -999 -999 -999 -999 -999
2008-03-20 08:28:28 51°14.467 2°41.862 -999 -999 -999 -999 -999
2008-03-20 08:28:33 51°14.464 2°41.834 -999 -999 -999 -999 -999
2008-03-20 08:28:37 51°14.463 2°41.811 -999 -999 -999 -999 -999
2008-03-20 08:28:43 51°14.46 2°41.777 -999 -999 -999 -999 -999
2008-03-20 08:28:48 51°14.458 2°41.749 -999 -999 -999 -999 -999
2008-03-20 08:28:53 51°14.456 2°41.721 -999 -999 -999 -999 -999
2008-03-20 08:28:57 51°14.456 2°41.698 -999 -999 -999 -999 -999
2008-03-20 08:29:03 51°14.452 2°41.664 -999 -999 -999 -999 -999
2008-03-20 08:29:08 51°14.451 2°41.636 -999 -999 -999 -999 -999
2008-03-20 08:29:13 51°14.448 2°41.608 -999 -999 -999 -999 -999
2008-03-20 08:29:18 51°14.447 2°41.58 -999 -999 -999 -999 -999
2008-03-20 08:29:23 51°14.444 2°41.552 -999 -999 -999 -999 -999
2008-03-20 08:29:28 51°14.443 2°41.524 -999 -999 -999 -999 -999
2008-03-20 08:29:33 51°14.439 2°41.496 -999 -999 -999 -999 -999
2008-03-20 08:29:38 51°14.438 2°41.468 -999 -999 -999 -999 -999
2008-03-20 08:29:43 51°14.436 2°41.44 -999 -999 -999 -999 -999
2008-03-20 08:29:48 51°14.433 2°41.412 -999 -999 -999 -999 -999
2008-03-20 08:29:53 51°14.432 2°41.383 -999 -999 -999 -999 -999
2008-03-20 08:29:58 51°14.431 2°41.355 -999 -999 -999 -999 -999
2008-03-20 08:30:02 51°14.429 2°41.332 -999 -999 -999 -999 -999
2008-03-20 08:30:08 51°14.427 2°41.298 -999 -999 -999 -999 -999
2008-03-20 08:30:13 51°14.425 2°41.27 -999 -999 -999 -999 -999
2008-03-20 08:30:18 51°14.423 2°41.241 -999 -999 -999 -999 -999
2008-03-20 08:30:23 51°14.421 2°41.213 -999 -999 -999 -999 -999
2008-03-20 08:30:28 51°14.419 2°41.185 -999 -999 -999 -999 -999
2008-03-20 08:30:33 51°14.417 2°41.156 -999 -999 -999 -999 -999
2008-03-20 08:30:38 51°14.415 2°41.128 -999 -999 -999 -999 -999
2008-03-20 08:30:43 51°14.412 2°41.1 -999 -999 -999 -999 -999
2008-03-20 08:30:48 51°14.41 2°41.072 -999 -999 -999 -999 -999
2008-03-20 08:30:53 51°14.409 2°41.043 -999 -999 -999 -999 -999
2008-03-20 08:30:57 51°14.407 2°41.02 -999 -999 -999 -999 -999
2008-03-20 08:31:03 51°14.406 2°40.987 -999 -999 -999 -999 -999
2008-03-20 08:31:08 51°14.403 2°40.959 -999 -999 -999 -999 -999
2008-03-20 08:31:13 51°14.401 2°40.93 -999 -999 -999 -999 -999
2008-03-20 08:31:17 51°14.399 2°40.908 -999 -999 -999 -999 -999
2008-03-20 08:31:23 51°14.397 2°40.875 -999 -999 -999 -999 -999
2008-03-20 08:31:28 51°14.396 2°40.846 -999 -999 -999 -999 -999
2008-03-20 08:31:33 51°14.393 2°40.818 -999 -999 -999 -999 -999
2008-03-20 08:31:38 51°14.393 2°40.79 -999 -999 -999 -999 -999
2008-03-20 08:31:42 51°14.391 2°40.768 -999 -999 -999 -999 -999
2008-03-20 08:31:48 51°14.39 2°40.734 -999 -999 -999 -999 -999
2008-03-20 08:31:53 51°14.389 2°40.706 -999 -999 -999 -999 -999
2008-03-20 08:31:58 51°14.387 2°40.677 -999 -999 -999 -999 -999
2008-03-20 08:32:02 51°14.387 2°40.655 -999 -999 -999 -999 -999
2008-03-20 08:32:08 51°14.383 2°40.622 -999 -999 -999 -999 -999
2008-03-20 08:32:13 51°14.383 2°40.593 -999 -999 -999 -999 -999
2008-03-20 08:32:18 51°14.382 2°40.565 -999 -999 -999 -999 -999
2008-03-20 08:32:22 51°14.381 2°40.543 -999 -999 -999 -999 -999
2008-03-20 08:32:28 51°14.379 2°40.509 -999 -999 -999 -999 -999
2008-03-20 08:32:33 51°14.377 2°40.481 -999 -999 -999 -999 -999
2008-03-20 08:32:38 51°14.376 2°40.454 -999 -999 -999 -999 -999
2008-03-20 08:32:43 51°14.374 2°40.426 -999 -999 -999 -999 -999
2008-03-20 08:32:48 51°14.373 2°40.398 -999 -999 -999 -999 -999
2008-03-20 08:32:53 51°14.371 2°40.371 -999 -999 -999 -999 -999
2008-03-20 08:32:58 51°14.37 2°40.343 -999 -999 -999 -999 -999
2008-03-20 08:33:03 51°14.368 2°40.315 -999 -999 -999 -999 -999
2008-03-20 08:33:08 51°14.367 2°40.287 -999 -999 -999 -999 -999
2008-03-20 08:33:13 51°14.365 2°40.259 -999 -999 -999 -999 -999
2008-03-20 08:33:17 51°14.364 2°40.237 -999 -999 -999 -999 -999
2008-03-20 08:33:23 51°14.362 2°40.205 -999 -999 -999 -999 -999
2008-03-20 08:33:28 51°14.361 2°40.177 -999 -999 -999 -999 -999
2008-03-20 08:33:33 51°14.359 2°40.149 -999 -999 -999 -999 -999
2008-03-20 08:33:38 51°14.357 2°40.122 -999 -999 -999 -999 -999
2008-03-20 08:33:43 51°14.356 2°40.095 -999 -999 -999 -999 -999
2008-03-20 08:33:48 51°14.354 2°40.067 -999 -999 -999 -999 -999
2008-03-20 08:33:53 51°14.353 2°40.039 -999 -999 -999 -999 -999
2008-03-20 08:33:58 51°14.352 2°40.012 -999 -999 -999 -999 -999
2008-03-20 08:34:02 51°14.349 2°39.99 -999 -999 -999 -999 -999
2008-03-20 08:34:08 51°14.349 2°39.956 -999 -999 -999 -999 -999
2008-03-20 08:34:13 51°14.348 2°39.928 -999 -999 -999 -999 -999
2008-03-20 08:34:18 51°14.346 2°39.9 -999 -999 -999 -999 -999
2008-03-20 08:34:22 51°14.346 2°39.878 -999 -999 -999 -999 -999
2008-03-20 08:34:28 51°14.344 2°39.845 -999 -999 -999 -999 -999
2008-03-20 08:34:33 51°14.343 2°39.817 -999 -999 -999 -999 -999
2008-03-20 08:34:38 51°14.341 2°39.79 -999 -999 -999 -999 -999
2008-03-20 08:34:43 51°14.34 2°39.762 -999 -999 -999 -999 -999
2008-03-20 08:34:48 51°14.337 2°39.734 -999 -999 -999 -999 -999
2008-03-20 08:34:53 51°14.337 2°39.707 -999 -999 -999 -999 -999
2008-03-20 08:34:58 51°14.334 2°39.679 -999 -999 -999 -999 -999
2008-03-20 08:35:03 51°14.333 2°39.651 -999 -999 -999 -999 -999
2008-03-20 08:35:08 51°14.332 2°39.624 -999 -999 -999 -999 -999
2008-03-20 08:35:13 51°14.329 2°39.597 -999 -999 -999 -999 -999
2008-03-20 08:35:18 51°14.329 2°39.569 -999 -999 -999 -999 -999
2008-03-20 08:35:23 51°14.327 2°39.541 -999 -999 -999 -999 -999
2008-03-20 08:35:28 51°14.325 2°39.513 -999 -999 -999 -999 -999
2008-03-20 08:35:33 51°14.323 2°39.486 -999 -999 -999 -999 -999
2008-03-20 08:35:37 51°14.321 2°39.463 -999 -999 -999 -999 -999
2008-03-20 08:35:43 51°14.32 2°39.43 -999 -999 -999 -999 -999
2008-03-20 08:35:48 51°14.318 2°39.402 -999 -999 -999 -999 -999
2008-03-20 08:35:53 51°14.316 2°39.374 -999 -999 -999 -999 -999
2008-03-20 08:35:58 51°14.315 2°39.346 -999 -999 -999 -999 -999
2008-03-20 08:36:03 51°14.312 2°39.319 -999 -999 -999 -999 -999
2008-03-20 08:36:08 51°14.311 2°39.291 -999 -999 -999 -999 -999
2008-03-20 08:36:13 51°14.309 2°39.264 -999 -999 -999 -999 -999
2008-03-20 08:36:17 51°14.308 2°39.242 -999 -999 -999 -999 -999
2008-03-20 08:36:22 51°14.307 2°39.214 -999 -999 -999 -999 -999
2008-03-20 08:36:28 51°14.305 2°39.181 -999 -999 -999 -999 -999
2008-03-20 08:36:33 51°14.304 2°39.154 -999 -999 -999 -999 -999
2008-03-20 08:36:38 51°14.302 2°39.126 -999 -999 -999 -999 -999
2008-03-20 08:36:42 51°14.3 2°39.104 -999 -999 -999 -999 -999
2008-03-20 08:36:48 51°14.299 2°39.071 -999 -999 -999 -999 -999
2008-03-20 08:36:53 51°14.297 2°39.044 -999 -999 -999 -999 -999
2008-03-20 08:36:58 51°14.295 2°39.016 -999 -999 -999 -999 -999
2008-03-20 08:37:03 51°14.294 2°38.988 -999 -999 -999 -999 -999
2008-03-20 08:37:08 51°14.292 2°38.96 -999 -999 -999 -999 -999
2008-03-20 08:37:13 51°14.289 2°38.933 -999 -999 -999 -999 -999
2008-03-20 08:37:18 51°14.286 2°38.905 -999 -999 -999 -999 -999
2008-03-20 08:37:23 51°14.284 2°38.877 -999 -999 -999 -999 -999
2008-03-20 08:37:28 51°14.281 2°38.85 -999 -999 -999 -999 -999
2008-03-20 08:37:33 51°14.278 2°38.823 -999 -999 -999 -999 -999
2008-03-20 08:37:38 51°14.276 2°38.795 -999 -999 -999 -999 -999
2008-03-20 08:37:43 51°14.273 2°38.767 -999 -999 -999 -999 -999
2008-03-20 08:37:48 51°14.27 2°38.739 -999 -999 -999 -999 -999
2008-03-20 08:37:53 51°14.266 2°38.712 -999 -999 -999 -999 -999
2008-03-20 08:37:58 51°14.261 2°38.684 -999 -999 -999 -999 -999
2008-03-20 08:38:03 51°14.258 2°38.656 -999 -999 -999 -999 -999
2008-03-20 08:38:08 51°14.253 2°38.629 -999 -999 -999 -999 -999
2008-03-20 08:38:13 51°14.249 2°38.601 -999 -999 -999 -999 -999
2008-03-20 08:38:17 51°14.246 2°38.578 -999 -999 -999 -999 -999
2008-03-20 08:38:23 51°14.241 2°38.545 -999 -999 -999 -999 -999
2008-03-20 08:38:28 51°14.236 2°38.517 -999 -999 -999 -999 -999
2008-03-20 08:38:33 51°14.233 2°38.489 -999 -999 -999 -999 -999
2008-03-20 08:38:38 51°14.229 2°38.461 -999 -999 -999 -999 -999
2008-03-20 08:38:42 51°14.225 2°38.439 -999 -999 -999 -999 -999
2008-03-20 08:38:48 51°14.221 2°38.405 -999 -999 -999 -999 -999
2008-03-20 08:38:53 51°14.215 2°38.377 -999 -999 -999 -999 -999
2008-03-20 08:38:58 51°14.213 2°38.349 -999 -999 -999 -999 -999
2008-03-20 08:39:03 51°14.208 2°38.322 -999 -999 -999 -999 -999
2008-03-20 08:39:08 51°14.204 2°38.294 -999 -999 -999 -999 -999
2008-03-20 08:39:13 51°14.198 2°38.266 -999 -999 -999 -999 -999
2008-03-20 08:39:18 51°14.196 2°38.238 -999 -999 -999 -999 -999
2008-03-20 08:39:23 51°14.191 2°38.21 -999 -999 -999 -999 -999
2008-03-20 08:39:28 51°14.188 2°38.182 -999 -999 -999 -999 -999
2008-03-20 08:39:33 51°14.184 2°38.155 -999 -999 -999 -999 -999
2008-03-20 08:39:38 51°14.18 2°38.127 -999 -999 -999 -999 -999
2008-03-20 08:39:43 51°14.177 2°38.099 -999 -999 -999 -999 -999
2008-03-20 08:39:48 51°14.172 2°38.072 -999 -999 -999 -999 -999
2008-03-20 08:39:53 51°14.17 2°38.043 -999 -999 -999 -999 -999
2008-03-20 08:39:58 51°14.165 2°38.016 -999 -999 -999 -999 -999
2008-03-20 08:40:03 51°14.162 2°37.988 -999 -999 -999 -999 -999
2008-03-20 08:40:08 51°14.159 2°37.959 -999 -999 -999 -999 -999
2008-03-20 08:40:13 51°14.155 2°37.932 -999 -999 -999 -999 -999
2008-03-20 08:40:17 51°14.153 2°37.909 -999 -999 -999 -999 -999
2008-03-20 08:40:23 51°14.149 2°37.875 -999 -999 -999 -999 -999
2008-03-20 08:40:28 51°14.145 2°37.847 -999 -999 -999 -999 -999
2008-03-20 08:40:33 51°14.142 2°37.819 -999 -999 -999 -999 -999
2008-03-20 08:40:37 51°14.139 2°37.797 -999 -999 -999 -999 -999
2008-03-20 08:40:42 51°14.136 2°37.768 -999 -999 -999 -999 -999
2008-03-20 08:40:48 51°14.131 2°37.734 -999 -999 -999 -999 -999
2008-03-20 08:40:53 51°14.128 2°37.706 -999 -999 -999 -999 -999
2008-03-20 08:40:58 51°14.124 2°37.678 -999 -999 -999 -999 -999
2008-03-20 08:41:02 51°14.122 2°37.655 -999 -999 -999 -999 -999
2008-03-20 08:41:08 51°14.118 2°37.621 -999 -999 -999 -999 -999
2008-03-20 08:41:13 51°14.114 2°37.593 -999 -999 -999 -999 -999
2008-03-20 08:41:18 51°14.11 2°37.564 -999 -999 -999 -999 -999
2008-03-20 08:41:23 51°14.108 2°37.536 -999 -999 -999 -999 -999
2008-03-20 08:41:28 51°14.103 2°37.507 -999 -999 -999 -999 -999
2008-03-20 08:41:33 51°14.1 2°37.479 -999 -999 -999 -999 -999
2008-03-20 08:41:38 51°14.097 2°37.45 -999 -999 -999 -999 -999
2008-03-20 08:41:43 51°14.094 2°37.422 -999 -999 -999 -999 -999
2008-03-20 08:41:48 51°14.09 2°37.394 -999 -999 -999 -999 -999
2008-03-20 08:41:53 51°14.087 2°37.366 -999 -999 -999 -999 -999
2008-03-20 08:41:58 51°14.083 2°37.337 -999 -999 -999 -999 -999
2008-03-20 08:42:03 51°14.08 2°37.309 -999 -999 -999 -999 -999
2008-03-20 08:42:08 51°14.076 2°37.281 -999 -999 -999 -999 -999
2008-03-20 08:42:13 51°14.072 2°37.252 -999 -999 -999 -999 -999
2008-03-20 08:42:17 51°14.07 2°37.229 -999 -999 -999 -999 -999
2008-03-20 08:42:23 51°14.067 2°37.195 -999 -999 -999 -999 -999
2008-03-20 08:42:28 51°14.064 2°37.167 -999 -999 -999 -999 -999
2008-03-20 08:42:33 51°14.061 2°37.138 -999 -999 -999 -999 -999
2008-03-20 08:42:37 51°14.057 2°37.116 -999 -999 -999 -999 -999
2008-03-20 08:42:42 51°14.054 2°37.088 -999 -999 -999 -999 -999
2008-03-20 08:42:48 51°14.05 2°37.054 -999 -999 -999 -999 -999
2008-03-20 08:42:53 51°14.047 2°37.026 -999 -999 -999 -999 -999
2008-03-20 08:42:58 51°14.043 2°36.998 -999 -999 -999 -999 -999
2008-03-20 08:43:02 51°14.042 2°36.976 -999 -999 -999 -999 -999
2008-03-20 08:43:08 51°14.036 2°36.943 -999 -999 -999 -999 -999
2008-03-20 08:43:13 51°14.034 2°36.915 -999 -999 -999 -999 -999
2008-03-20 08:43:18 51°14.03 2°36.887 -999 -999 -999 -999 -999
2008-03-20 08:43:23 51°14.027 2°36.859 -999 -999 -999 -999 -999
2008-03-20 08:43:28 51°14.024 2°36.831 -999 -999 -999 -999 -999
2008-03-20 08:43:33 51°14.022 2°36.803 -999 -999 -999 -999 -999
2008-03-20 08:43:38 51°14.018 2°36.775 -999 -999 -999 -999 -999
2008-03-20 08:43:43 51°14.015 2°36.747 -999 -999 -999 -999 -999
2008-03-20 08:43:48 51°14.012 2°36.719 -999 -999 -999 -999 -999
2008-03-20 08:43:53 51°14.009 2°36.691 -999 -999 -999 -999 -999
2008-03-20 08:43:58 51°14.005 2°36.664 -999 -999 -999 -999 -999
2008-03-20 08:44:03 51°14.003 2°36.635 -999 -999 -999 -999 -999
2008-03-20 08:44:08 51°14.001 2°36.608 -999 -999 -999 -999 -999
2008-03-20 08:44:13 51°13.997 2°36.581 -999 -999 -999 -999 -999
2008-03-20 08:44:18 51°13.993 2°36.554 -999 -999 -999 -999 -999
2008-03-20 08:44:23 51°13.99 2°36.525 -999 -999 -999 -999 -999
2008-03-20 08:44:28 51°13.988 2°36.497 -999 -999 -999 -999 -999
2008-03-20 08:44:33 51°13.986 2°36.47 -999 -999 -999 -999 -999
2008-03-20 08:44:38 51°13.982 2°36.443 -999 -999 -999 -999 -999
2008-03-20 08:44:43 51°13.98 2°36.414 -999 -999 -999 -999 -999
2008-03-20 08:44:48 51°13.977 2°36.387 -999 -999 -999 -999 -999
2008-03-20 08:44:53 51°13.973 2°36.36 -999 -999 -999 -999 -999
2008-03-20 08:44:57 51°13.971 2°36.338 -999 -999 -999 -999 -999
2008-03-20 08:45:03 51°13.967 2°36.304 -999 -999 -999 -999 -999
2008-03-20 08:45:08 51°13.965 2°36.277 -999 -999 -999 -999 -999
2008-03-20 08:45:13 51°13.961 2°36.249 -999 -999 -999 -999 -999
2008-03-20 08:45:18 51°13.959 2°36.222 -999 -999 -999 -999 -999
2008-03-20 08:45:22 51°13.956 2°36.2 -999 -999 -999 -999 -999
2008-03-20 08:45:28 51°13.952 2°36.167 -999 -999 -999 -999 -999
2008-03-20 08:45:33 51°13.95 2°36.14 -999 -999 -999 -999 -999
2008-03-20 08:45:38 51°13.946 2°36.112 -999 -999 -999 -999 -999
2008-03-20 08:45:43 51°13.944 2°36.084 -999 -999 -999 -999 -999
2008-03-20 08:45:48 51°13.942 2°36.057 -999 -999 -999 -999 -999
2008-03-20 08:45:53 51°13.939 2°36.031 -999 -999 -999 -999 -999
2008-03-20 08:45:58 51°13.935 2°36.003 -999 -999 -999 -999 -999
2008-03-20 08:46:02 51°13.934 2°35.981 -999 -999 -999 -999 -999
2008-03-20 08:46:08 51°13.93 2°35.949 -999 -999 -999 -999 -999
2008-03-20 08:46:13 51°13.927 2°35.922 -999 -999 -999 -999 -999
2008-03-20 08:46:18 51°13.924 2°35.895 -999 -999 -999 -999 -999
2008-03-20 08:46:23 51°13.921 2°35.867 -999 -999 -999 -999 -999
2008-03-20 08:46:28 51°13.92 2°35.84 -999 -999 -999 -999 -999
2008-03-20 08:46:33 51°13.917 2°35.813 -999 -999 -999 -999 -999
2008-03-20 08:46:38 51°13.915 2°35.786 -999 -999 -999 -999 -999
2008-03-20 08:46:43 51°13.911 2°35.758 -999 -999 -999 -999 -999
2008-03-20 08:46:48 51°13.91 2°35.731 -999 -999 -999 -999 -999
2008-03-20 08:46:53 51°13.906 2°35.704 -999 -999 -999 -999 -999
2008-03-20 08:46:57 51°13.904 2°35.682 -999 -999 -999 -999 -999
2008-03-20 08:47:03 51°13.9 2°35.649 -999 -999 -999 -999 -999
2008-03-20 08:47:08 51°13.898 2°35.622 -999 -999 -999 -999 -999
2008-03-20 08:47:13 51°13.894 2°35.596 -999 -999 -999 -999 -999
2008-03-20 08:47:18 51°13.892 2°35.568 -999 -999 -999 -999 -999
2008-03-20 08:47:23 51°13.889 2°35.541 -999 -999 -999 -999 -999
2008-03-20 08:47:28 51°13.885 2°35.515 -999 -999 -999 -999 -999
2008-03-20 08:47:33 51°13.883 2°35.488 -999 -999 -999 -999 -999
2008-03-20 08:47:38 51°13.879 2°35.461 -999 -999 -999 -999 -999
2008-03-20 08:47:43 51°13.878 2°35.435 -999 -999 -999 -999 -999
2008-03-20 08:47:48 51°13.873 2°35.408 -999 -999 -999 -999 -999
2008-03-20 08:47:53 51°13.872 2°35.38 -999 -999 -999 -999 -999
2008-03-20 08:47:58 51°13.868 2°35.354 -999 -999 -999 -999 -999
2008-03-20 08:48:02 51°13.866 2°35.332 -999 -999 -999 -999 -999
2008-03-20 08:48:08 51°13.863 2°35.301 -999 -999 -999 -999 -999
2008-03-20 08:48:13 51°13.861 2°35.273 -999 -999 -999 -999 -999
2008-03-20 08:48:18 51°13.858 2°35.246 -999 -999 -999 -999 -999
2008-03-20 08:48:23 51°13.855 2°35.22 -999 -999 -999 -999 -999
2008-03-20 08:48:28 51°13.852 2°35.193 -999 -999 -999 -999 -999
2008-03-20 08:48:33 51°13.849 2°35.165 -999 -999 -999 -999 -999
2008-03-20 08:48:38 51°13.847 2°35.138 -999 -999 -999 -999 -999
2008-03-20 08:48:43 51°13.844 2°35.112 -999 -999 -999 -999 -999
2008-03-20 08:48:48 51°13.841 2°35.085 -999 -999 -999 -999 -999
2008-03-20 08:48:53 51°13.84 2°35.058 -999 -999 -999 -999 -999
2008-03-20 08:48:58 51°13.837 2°35.032 -999 -999 -999 -999 -999
2008-03-20 08:49:03 51°13.834 2°35.005 -999 -999 -999 -999 -999
2008-03-20 08:49:08 51°13.833 2°34.977 -999 -999 -999 -999 -999
2008-03-20 08:49:13 51°13.831 2°34.95 -999 -999 -999 -999 -999
2008-03-20 08:49:17 51°13.828 2°34.93 -999 -999 -999 -999 -999
2008-03-20 08:49:23 51°13.824 2°34.897 -999 -999 -999 -999 -999
2008-03-20 08:49:28 51°13.822 2°34.869 -999 -999 -999 -999 -999
2008-03-20 08:49:33 51°13.82 2°34.843 -999 -999 -999 -999 -999
2008-03-20 08:49:38 51°13.817 2°34.817 -999 -999 -999 -999 -999
2008-03-20 08:49:43 51°13.814 2°34.789 -999 -999 -999 -999 -999
2008-03-20 08:49:48 51°13.812 2°34.762 -999 -999 -999 -999 -999
2008-03-20 08:49:53 51°13.808 2°34.736 -999 -999 -999 -999 -999
2008-03-20 08:49:58 51°13.806 2°34.708 -999 -999 -999 -999 -999
2008-03-20 08:50:02 51°13.804 2°34.686 -999 -999 -999 -999 -999
2008-03-20 08:50:08 51°13.801 2°34.654 -999 -999 -999 -999 -999
2008-03-20 08:50:13 51°13.798 2°34.626 -999 -999 -999 -999 -999
2008-03-20 08:50:18 51°13.796 2°34.599 -999 -999 -999 -999 -999
2008-03-20 08:50:22 51°13.793 2°34.577 -999 -999 -999 -999 -999
2008-03-20 08:50:28 51°13.789 2°34.544 -999 -999 -999 -999 -999
2008-03-20 08:50:33 51°13.787 2°34.516 -999 -999 -999 -999 -999
2008-03-20 08:50:38 51°13.783 2°34.489 -999 -999 -999 -999 -999
2008-03-20 08:50:43 51°13.782 2°34.462 -999 -999 -999 -999 -999
2008-03-20 08:50:48 51°13.778 2°34.434 -999 -999 -999 -999 -999
2008-03-20 08:50:53 51°13.775 2°34.407 -999 -999 -999 -999 -999
2008-03-20 08:50:58 51°13.773 2°34.38 -999 -999 -999 -999 -999
2008-03-20 08:51:03 51°13.769 2°34.352 -999 -999 -999 -999 -999
2008-03-20 08:51:08 51°13.766 2°34.325 -999 -999 -999 -999 -999
2008-03-20 08:51:13 51°13.762 2°34.298 -999 -999 -999 -999 -999
2008-03-20 08:51:18 51°13.759 2°34.27 -999 -999 -999 -999 -999
2008-03-20 08:51:23 51°13.755 2°34.243 -999 -999 -999 -999 -999
2008-03-20 08:51:28 51°13.752 2°34.215 -999 -999 -999 -999 -999
2008-03-20 08:51:33 51°13.749 2°34.187 -999 -999 -999 -999 -999
2008-03-20 08:51:38 51°13.745 2°34.16 -999 -999 -999 -999 -999
2008-03-20 08:51:43 51°13.743 2°34.132 -999 -999 -999 -999 -999
2008-03-20 08:51:48 51°13.74 2°34.104 -999 -999 -999 -999 -999
2008-03-20 08:51:53 51°13.737 2°34.077 -999 -999 -999 -999 -999
2008-03-20 08:51:58 51°13.733 2°34.049 -999 -999 -999 -999 -999
2008-03-20 08:52:03 51°13.731 2°34.021 -999 -999 -999 -999 -999
2008-03-20 08:52:08 51°13.726 2°33.994 -999 -999 -999 -999 -999
2008-03-20 08:52:13 51°13.724 2°33.966 -999 -999 -999 -999 -999
2008-03-20 08:52:18 51°13.721 2°33.939 -999 -999 -999 -999 -999
2008-03-20 08:52:22 51°13.717 2°33.917 -999 -999 -999 -999 -999
2008-03-20 08:52:28 51°13.713 2°33.884 -999 -999 -999 -999 -999
2008-03-20 08:52:33 51°13.71 2°33.857 -999 -999 -999 -999 -999
2008-03-20 08:52:38 51°13.708 2°33.829 -999 -999 -999 -999 -999
2008-03-20 08:52:43 51°13.705 2°33.802 -999 -999 -999 -999 -999
2008-03-20 08:52:48 51°13.703 2°33.774 -999 -999 -999 -999 -999
2008-03-20 08:52:53 51°13.702 2°33.746 -999 -999 -999 -999 -999
2008-03-20 08:52:58 51°13.7 2°33.719 -999 -999 -999 -999 -999
2008-03-20 08:53:03 51°13.698 2°33.691 -999 -999 -999 -999 -999
2008-03-20 08:53:08 51°13.696 2°33.664 -999 -999 -999 -999 -999
2008-03-20 08:53:13 51°13.695 2°33.636 -999 -999 -999 -999 -999
2008-03-20 08:53:18 51°13.693 2°33.608 -999 -999 -999 -999 -999
2008-03-20 08:53:23 51°13.691 2°33.58 -999 -999 -999 -999 -999
2008-03-20 08:53:28 51°13.69 2°33.552 -999 -999 -999 -999 -999
2008-03-20 08:53:33 51°13.687 2°33.524 -999 -999 -999 -999 -999
2008-03-20 08:53:38 51°13.686 2°33.496 -999 -999 -999 -999 -999
2008-03-20 08:53:43 51°13.684 2°33.467 -999 -999 -999 -999 -999
2008-03-20 08:53:48 51°13.685 2°33.44 -999 -999 -999 -999 -999
2008-03-20 08:53:53 51°13.683 2°33.41 -999 -999 -999 -999 -999
2008-03-20 08:53:58 51°13.686 2°33.383 -999 -999 -999 -999 -999
2008-03-20 08:54:03 51°13.685 2°33.355 -999 -999 -999 -999 -999
2008-03-20 08:54:08 51°13.686 2°33.327 -999 -999 -999 -999 -999
2008-03-20 08:54:13 51°13.686 2°33.299 -999 -999 -999 -999 -999
2008-03-20 08:54:17 51°13.686 2°33.276 -999 -999 -999 -999 -999
2008-03-20 08:54:23 51°13.687 2°33.243 -999 -999 -999 -999 -999
2008-03-20 08:54:28 51°13.687 2°33.215 -999 -999 -999 -999 -999
2008-03-20 08:54:33 51°13.688 2°33.188 -999 -999 -999 -999 -999
2008-03-20 08:54:38 51°13.688 2°33.16 -999 -999 -999 -999 -999
2008-03-20 08:54:42 51°13.689 2°33.137 -999 -999 -999 -999 -999
2008-03-20 08:54:48 51°13.689 2°33.103 -999 -999 -999 -999 -999
2008-03-20 08:54:53 51°13.69 2°33.076 -999 -999 -999 -999 -999
2008-03-20 08:54:58 51°13.69 2°33.048 -999 -999 -999 -999 -999
2008-03-20 08:55:03 51°13.691 2°33.019 -999 -999 -999 -999 -999
2008-03-20 08:55:08 51°13.692 2°32.992 -999 -999 -999 -999 -999
2008-03-20 08:55:13 51°13.692 2°32.964 -999 -999 -999 -999 -999
2008-03-20 08:55:18 51°13.693 2°32.936 -999 -999 -999 -999 -999
2008-03-20 08:55:23 51°13.693 2°32.908 -999 -999 -999 -999 -999
2008-03-20 08:55:28 51°13.694 2°32.88 -999 -999 -999 -999 -999
2008-03-20 08:55:33 51°13.695 2°32.851 -999 -999 -999 -999 -999
2008-03-20 08:55:38 51°13.695 2°32.823 -999 -999 -999 -999 -999
2008-03-20 08:55:43 51°13.696 2°32.795 -999 -999 -999 -999 -999
2008-03-20 08:55:48 51°13.696 2°32.766 -999 -999 -999 -999 -999
2008-03-20 08:55:53 51°13.697 2°32.739 -999 -999 -999 -999 -999
2008-03-20 08:55:58 51°13.696 2°32.71 -999 -999 -999 -999 -999
2008-03-20 08:56:03 51°13.697 2°32.682 -999 -999 -999 -999 -999
2008-03-20 08:56:08 51°13.697 2°32.654 -999 -999 -999 -999 -999
2008-03-20 08:56:13 51°13.698 2°32.626 -999 -999 -999 -999 -999
2008-03-20 08:56:17 51°13.698 2°32.603 -999 -999 -999 -999 -999
2008-03-20 08:56:23 51°13.698 2°32.569 -999 -999 -999 -999 -999
2008-03-20 08:56:28 51°13.698 2°32.541 -999 -999 -999 -999 -999
2008-03-20 08:56:33 51°13.698 2°32.513 -999 -999 -999 -999 -999
2008-03-20 08:56:38 51°13.699 2°32.484 -999 -999 -999 -999 -999
2008-03-20 08:56:42 51°13.699 2°32.461 -999 -999 -999 -999 -999
2008-03-20 08:56:48 51°13.699 2°32.427 -999 -999 -999 -999 -999
2008-03-20 08:56:53 51°13.7 2°32.399 -999 -999 -999 -999 -999
2008-03-20 08:56:58 51°13.7 2°32.37 -999 -999 -999 -999 -999
2008-03-20 08:57:03 51°13.701 2°32.342 -999 -999 -999 -999 -999
2008-03-20 08:57:08 51°13.701 2°32.314 -999 -999 -999 -999 -999
2008-03-20 08:57:13 51°13.701 2°32.285 -999 -999 -999 -999 -999
2008-03-20 08:57:18 51°13.702 2°32.257 -999 -999 -999 -999 -999
2008-03-20 08:57:23 51°13.703 2°32.228 -999 -999 -999 -999 -999
2008-03-20 08:57:28 51°13.702 2°32.2 -999 -999 -999 -999 -999
2008-03-20 08:57:33 51°13.704 2°32.172 -999 -999 -999 -999 -999
2008-03-20 08:57:38 51°13.703 2°32.143 -999 -999 -999 -999 -999
2008-03-20 08:57:43 51°13.703 2°32.115 -999 -999 -999 -999 -999
2008-03-20 08:57:48 51°13.703 2°32.088 -999 -999 -999 -999 -999
2008-03-20 08:57:53 51°13.702 2°32.063 -999 -999 -999 -999 -999
2008-03-20 08:57:58 51°13.702 2°32.04 -999 -999 -999 -999 -999
2008-03-20 08:58:03 51°13.702 2°32.02 -999 -999 -999 -999 -999
2008-03-20 08:58:08 51°13.702 2°32.001 -999 -999 -999 -999 -999
2008-03-20 08:58:13 51°13.702 2°31.983 -999 -999 -999 -999 -999
2008-03-20 08:58:18 51°13.702 2°31.968 -999 -999 -999 -999 -999
2008-03-20 08:58:23 51°13.702 2°31.953 -999 -999 -999 -999 -999
2008-03-20 08:58:28 51°13.703 2°31.94 -999 -999 -999 -999 -999
2008-03-20 08:58:33 51°13.704 2°31.928 -999 -999 -999 -999 -999
2008-03-20 08:58:37 51°13.705 2°31.919 -999 -999 -999 -999 -999
2008-03-20 08:58:43 51°13.708 2°31.908 -999 -999 -999 -999 -999
2008-03-20 08:58:48 51°13.71 2°31.899 -999 -999 -999 -999 -999
2008-03-20 08:58:53 51°13.713 2°31.892 -999 -999 -999 -999 -999
2008-03-20 08:58:58 51°13.715 2°31.886 -999 -999 -999 -999 -999
2008-03-20 08:59:02 51°13.717 2°31.882 -999 -999 -999 -999 -999
2008-03-20 08:59:08 51°13.719 2°31.877 -999 -999 -999 -999 -999
2008-03-20 08:59:13 51°13.722 2°31.873 -999 -999 -999 -999 -999
2008-03-20 08:59:18 51°13.723 2°31.87 -999 -999 -999 -999 -999
2008-03-20 08:59:23 51°13.726 2°31.868 -999 -999 -999 -999 -999
2008-03-20 08:59:28 51°13.727 2°31.866 -999 -999 -999 -999 -999
2008-03-20 08:59:33 51°13.728 2°31.865 -999 -999 -999 -999 -999
2008-03-20 08:59:38 51°13.73 2°31.864 -999 -999 -999 -999 -999
2008-03-20 08:59:43 51°13.73 2°31.863 -999 -999 -999 -999 -999
2008-03-20 08:59:48 51°13.731 2°31.864 -999 -999 -999 -999 -999
2008-03-20 08:59:53 51°13.731 2°31.864 -999 -999 -999 -999 -999
2008-03-20 08:59:58 51°13.731 2°31.864 -999 -999 -999 -999 -999
2008-03-20 09:00:03 51°13.731 2°31.864 -999 -999 -999 -999 -999
2008-03-20 09:00:08 51°13.731 2°31.865 -999 -999 -999 -999 -999
2008-03-20 09:00:13 51°13.731 2°31.866 -999 -999 -999 -999 -999
2008-03-20 09:00:18 51°13.731 2°31.866 -999 -999 -999 -999 -999
2008-03-20 09:00:23 51°13.731 2°31.867 -999 -999 -999 -999 -999
2008-03-20 09:00:28 51°13.731 2°31.868 -999 -999 -999 -999 -999
2008-03-20 09:00:33 51°13.731 2°31.868 -999 -999 -999 -999 -999
2008-03-20 09:00:38 51°13.731 2°31.869 -999 -999 -999 -999 -999
2008-03-20 09:00:43 51°13.731 2°31.87 -999 -999 -999 -999 -999
2008-03-20 09:00:48 51°13.731 2°31.871 -999 -999 -999 -999 -999
2008-03-20 09:00:53 51°13.73 2°31.872 -999 -999 -999 -999 -999
2008-03-20 09:00:58 51°13.73 2°31.873 -999 -999 -999 -999 -999
2008-03-20 09:01:02 51°13.73 2°31.874 -999 -999 -999 -999 -999
2008-03-20 09:01:08 51°13.729 2°31.875 -999 -999 -999 -999 -999
2008-03-20 09:01:13 51°13.728 2°31.876 -999 -999 -999 -999 -999
2008-03-20 09:01:18 51°13.728 2°31.876 -999 -999 -999 -999 -999
2008-03-20 09:01:23 51°13.727 2°31.877 -999 -999 -999 -999 -999
2008-03-20 09:01:28 51°13.726 2°31.878 -999 -999 -999 -999 -999
2008-03-20 09:01:33 51°13.726 2°31.879 -999 -999 -999 -999 -999
2008-03-20 09:01:38 51°13.725 2°31.88 -999 -999 -999 -999 -999
2008-03-20 09:01:43 51°13.724 2°31.88 -999 -999 -999 -999 -999